This demonstration page uses our WeatherBlox Daily Observations layout. Learn more.

Left ArrowRight Arrow

41.12389, -100.76542

Hourly Observations for March 30, 2018

Temp ( °F °C ) Dew Point ( °F °C ) Humidity (%) Winds ( mph kmh ) Pressure ( in mb ) Visibility ( mi km ) Precip ( " mm )
12:53 am 00:53 Clear 21 -6.1 16 -8.9 81 81 Calm 30.32 1027 10 16 0.00 0.00
1:53 am 01:53 Clear 22 -5.6 19 -7.2 89 89 Calm 30.32 1027 10 16 0.00 0.00
2:53 am 02:53 Clear 21 -6.1 18 -7.8 88 88 Calm 30.30 1026 9 14 0.00 0.00
3:53 am 03:53 Clear 22 -5.6 18 -7.8 85 85 SW 3 6 30.29 1026 9 14 0.00 0.00
4:53 am 04:53 Clear 20 -6.7 16 -8.9 85 85 NNW 3 6 30.28 1026 10 16 0.00 0.00
5:53 am 05:53 Clear 21 -6.1 18 -7.8 88 88 NW 3 6 30.28 1026 10 16 0.00 0.00
6:53 am 06:53 Clear 21 -6.1 16 -8.9 81 81 Calm 30.28 1025 10 16 0.00 0.00
7:53 am 07:53 Sunny 21 -6.1 18 -7.8 88 88 Calm 30.28 1025 10 16 0.00 0.00
8:53 am 08:53 Sunny 30 -1.1 25 -3.9 82 82 WNW 3 6 30.26 1025 10 16 0.00 0.00
9:53 am 09:53 Sunny 36 2.2 29 -1.7 76 76 VRB 3 6 30.25 1025 10 16 0.00 0.00
10:53 am 10:53 Sunny 43 6.1 31 -0.6 63 63 Calm 30.24 1024 10 16 0.00 0.00
11:53 am 11:53 Sunny 51 10.6 32 0 48 48 S 5 7 30.19 1022 10 16 0.00 0.00
12:53 pm 12:53 Sunny 58 14.4 20 -6.7 23 23 SSW 16 26 30.13 1020 10 16 0.00 0.00
1:53 pm 13:53 Sunny 60 15.6 23 -5 24 24 SSW 20 31 30.08 1019 10 16 0.00 0.00
2:53 pm 14:53 Mostly Cloudy 64 17.8 27 -2.8 25 25 SSW 20 31 30.00 1016 10 16 0.00 0.00
3:53 pm 15:53 Cloudy 63 17.2 26 -3.3 25 25 SSW 13 20 29.96 1015 10 16 0.00 0.00
4:53 pm 16:53 Cloudy 64 17.8 27 -2.8 25 25 SSW 16 26 29.91 1013 10 16 0.00 0.00
5:53 pm 17:53 Cloudy 64 17.8 28 -2.2 26 26 SW 17 28 29.87 1012 10 16 0.00 0.00
6:53 pm 18:53 Cloudy 63 17.2 29 -1.7 28 28 SSW 10 17 29.84 1011 10 16 0.00 0.00
7:53 pm 19:53 Cloudy 61 16.1 30 -1.1 31 31 S 7 11 29.83 1010 10 16 0.00 0.00
8:53 pm 20:53 Mostly Cloudy 57 13.9 32 0 39 39 SSW 5 7 29.82 1010 10 16 0.00 0.00
9:53 pm 21:53 Cloudy 57 13.9 32 0 39 39 SSW 8 13 29.80 1009 10 16 0.00 0.00
10:53 pm 22:53 Cloudy 58 14.4 35 1.7 42 42 SSW 10 17 29.79 1009 10 16 0.00 0.00
11:53 pm 23:53 Partly Cloudy 54 12.2 36 2.2 51 51 S 5 7 29.78 1008 10 16 0.00 0.00

Powered by AerisWeather